Current Weather Conditions: station LYKV

sailwx.info

Air temperature 2.0° C
Dewpoint 1.0° C

Last reported at 2015-Mar-29 22:30 UTC.
Time now 2015-Mar-29 23:51 UTC

Location: N 43°49' E 020°35'.
View on Google Maps.

See reports from other nearby stations

  
Tides and Currents Weather Stations Pressure Air Temp Water Temp Dewpoint Dewpoint Depression Visibility Wind Speed Wind Dir Waves Ship Positions
date/time (UTC)wind fromknots sea level pressurealtimeterstation pressurevisibilityair tempwater tempwave heightnotes
2015-Mar-29 22:30 2.0
2015-Mar-29 22:00 2.0
2015-Mar-29 21:30 4.0
2015-Mar-29 21:00 4.0
2015-Mar-29 20:30 5.0
2015-Mar-29 20:00 6.0
2015-Mar-29 19:30 6.0
2015-Mar-29 19:00 7.0
2015-Mar-29 18:30 8.0
2015-Mar-29 18:00 9.0
2015-Mar-29 17:30 11.0
2015-Mar-29 17:00 12.0
2015-Mar-29 16:30 13.0
2015-Mar-29 16:00 5.413.0
2015-Mar-29 15:30 5.413.0
2015-Mar-29 15:00 260 6 5.413.0
2015-Mar-29 14:30 5.413.0
2015-Mar-29 14:00 300 4 5.413.0
2015-Mar-29 13:30 290 8 5.412.0
2015-Mar-29 13:00 310 7 5.412.0
2015-Mar-29 12:30 320 7 5.412.0
2015-Mar-29 12:00 310 5 5.411.0
2015-Mar-29 11:30 300 3 5.411.0
2015-Mar-29 11:00 5.410.0
2015-Mar-29 10:30 060 1 5.410.0
2015-Mar-29 10:00 5.410.0
2015-Mar-29 09:30 5.4 9.0
2015-Mar-29 09:00 280 3 5.4 8.0
2015-Mar-29 08:30 300 5 5.4 8.0
2015-Mar-29 08:00 300 4 5.4 8.0
2015-Mar-29 07:30 310 5 5.4 8.0
2015-Mar-29 07:00 5.4 7.0
2015-Mar-29 06:30 320 4 5.4 7.0
2015-Mar-29 06:00 320 3 5.4 7.0
2015-Mar-29 05:30 320 3 5.4 7.0
2015-Mar-29 05:00 330 5 5.4 7.0
2015-Mar-29 04:30 320 6 5.4 7.0
2015-Mar-29 04:00 310 5 5.4 7.0
2015-Mar-29 03:30 290 6 5.4 7.0
2015-Mar-29 03:00 300 5 5.4 7.0
2015-Mar-29 02:30 310 3 5.4 7.0
2015-Mar-29 02:00 300 4 5.4 7.0
2015-Mar-29 01:30 300 5 5.4 7.0
2015-Mar-29 01:00 300 5 5.4 7.0
2015-Mar-29 00:30 310 5 5.4 8.0
2015-Mar-29 00:00 300 5 5.4 8.0
2015-Mar-28 23:30 290 6 5.4 8.0
2015-Mar-28 23:00 290 6 5.4 8.0
2015-Mar-28 22:30 290 7 5.4 8.0
2015-Mar-28 22:00 290 7 5.4 8.0
2015-Mar-28 21:30 290 8 5.4 8.0
2015-Mar-28 21:00 290 3 5.4 8.0
2015-Mar-28 20:30 300 6 5.4 8.0
2015-Mar-28 20:00 300 6 5.4 8.0
2015-Mar-28 19:30 300 5 5.4 8.0
2015-Mar-28 19:00 300 5 5.4 7.0
2015-Mar-28 18:30 290 5 5.4 7.0
2015-Mar-28 18:00 290 7 5.4 7.0
2015-Mar-28 17:30 300 7 3.8 7.0 Light rain.
2015-Mar-28 17:00 290 6 3.8 7.0 Light rain.
2015-Mar-28 16:30 290 7 3.2 6.0 Light rain.
2015-Mar-28 16:00 290 8 3.2 6.0 Light rain.
2015-Mar-28 15:30 290 9 3.2 6.0 Light rain.
2015-Mar-28 15:00 300 10 3.2 6.0 Light rain.
2015-Mar-28 14:30 290 8 5.4 6.0
2015-Mar-28 14:00 290 8 5.4 6.0
2015-Mar-28 13:30 300 9 5.4 6.0
2015-Mar-28 13:00 300 9 5.4 6.0
2015-Mar-28 12:30 290 9 5.4 6.0
2015-Mar-28 12:00 290 9 5.4 6.0
2015-Mar-28 11:30 300 8 5.4 6.0
2015-Mar-28 11:00 300 10 5.4 6.0
2015-Mar-28 10:30 300 10 5.4 6.0
2015-Mar-28 10:00 300 11 5.4 6.0
2015-Mar-28 09:30 290 10 5.4 6.0
2015-Mar-28 09:00 290 10 5.4 6.0
2015-Mar-28 08:30 290 12 4.3 6.0 Light rain.
2015-Mar-28 08:00 290 12 4.3 6.0 Light rain.
2015-Mar-28 07:30 290 13 gusting 23 4.3 6.0
2015-Mar-28 07:00 290 13 4.3 6.0 Light rain.
2015-Mar-28 06:30 290 14 4.3 6.0 Light rain.
2015-Mar-28 06:00 290 15 4.3 6.0 Light rain.
2015-Mar-28 05:30 290 13 3.2 6.0 Light rain.
2015-Mar-28 05:00 290 14 2.2 6.0 Light rain.
2015-Mar-28 04:30 300 14 2.2 6.0 Light rain.
2015-Mar-28 04:00 290 11 4.3 6.0 Light rain.
2015-Mar-28 03:30 290 11 4.3 6.0 Light rain.
2015-Mar-28 03:00 290 11 gusting 22 4.3 6.0 Light rain.
2015-Mar-28 02:30 290 11 3.2 7.0 Light rain.
2015-Mar-28 02:00 290 10 3.2 6.0 Rain.
2015-Mar-28 01:30 290 8 3.2 7.0 Rain.
2015-Mar-28 01:00 290 7 3.2 7.0 Rain.
2015-Mar-28 00:30 280 5 3.2 7.0 Rain.
2015-Mar-28 00:00 280 7 3.2 8.0 Rain.
2015-Mar-27 23:30 300 10 3.2 8.0 Rain.
2015-Mar-27 23:00 290 7 3.2 8.0 Rain.